Regional Weather Roundup
Issued by NWS

Home | Current Version | Previous Version | Graphics & Text | Print | Product List | Glossary On
Versions: 1 2 3 4 5 6 7 8 9 10 11 12 13 14 15 16 17 18 19 20 21 22 23 24 25 26 27 28 29 30 31 32 33 34 35 36 37 38 39 40 41 42 43 44 45 46 47 48 49 50
000
ASUS43 KDMX 301307
RWRIA

WEATHER ROUNDUP FOR IOWA
NATIONAL WEATHER SERVICE DES MOINES IA
800 AM CDT TUE JUN 30 2015

NOTE: "FAIR" INDICATES FEW OR NO CLOUDS BELOW 12,000 FEET WITH NO
SIGNIFICANT WEATHER AND/OR OBSTRUCTIONS TO VISIBILITY.

* - THESE STATIONS ARE NOT NWS STATIONS...THUS NOT UNDER NWS
QUALITY CONTROL.  THEY ALSO DO NOT REPORT WEATHER SUCH
AS PRECIPITATION OR FOG.

IAZ001>003-012>014-020>022-031>034-043>046-301400-
   NORTHWEST IOWA

CITY           SKY/WX    TMP DP  RH WIND       PRES   REMARKS
CARROLL *      SUNNY     68  64  88 NW6       29.95R
CHEROKEE *     PTSUNNY   64  64 100 CALM      29.95F FOG
DENISON *      SUNNY     64  63  94 CALM      29.94R FOG
LE MARS *      SUNNY     64  64 100 CALM      29.96S FOG
ORANGE CITY *  SUNNY     66  63  88 CALM      29.95F
SHELDON *      SUNNY     63  63 100 CALM      29.94S FOG
SIOUX CITY     LGT RAIN  68  63  84 CALM      29.95F
SPENCER        MOSUNNY   64  62  93 NW5       29.96R FOG
STORM LAKE *   SUNNY     63  63 100 NW6       29.96S FOG
$$

IAZ055>058-069>071-079>083-090>094-301400-
   SOUTHWEST IOWA

CITY           SKY/WX    TMP DP  RH WIND       PRES   REMARKS
ATLANTIC *     SUNNY     66  64  94 CALM      29.95R
AUDUBON *      SUNNY     66  63  88 CALM      29.96R HAZE
CLARINDA *     SUNNY     68  68 100 CALM      29.95S
COUNCIL BLFS * SUNNY     68  64  88 N5        29.96R
CRESTON *      SUNNY     66  63  88 NW3       29.94S
HARLAN  *      SUNNY     66  66 100 CALM      29.99R
LAMONI         PTSUNNY   69  64  84 W7        29.93R
RED OAK *      SUNNY     66  66 100 CALM      29.94S
SHENANDOAH *   SUNNY     66  66 100 CALM      29.95R
$$

IAZ047>049-059>061-072>074-084-301400-
   CENTRAL IOWA

CITY           SKY/WX    TMP DP  RH WIND       PRES   REMARKS
AMES           MOSUNNY   67  63  87 NW8       29.91R FOG
ANKENY *       SUNNY     68  64  88 NW7       29.91R
CHARITON *     SUNNY     66  63  88 NW8       29.92R
DES MOINES     CLOUDY    69  62  78 NW9       29.91R HAZE
GRINNELL*      SUNNY     64  63  94 NW7       29.90R FOG
KNOXVILLE *    SUNNY     66  63  88 W8        29.90R
MARSHALLTOWN   SUNNY     65  63  93 NW7       29.89R FOG
PELLA *        SUNNY     68  66  94 NW7       29.91R
PERRY *          N/A     66  63  88 NW3       29.93R FOG
$$

IAZ004>006-015-016-023>025-035-036-301400-
   NORTH CENTRAL IOWA

CITY           SKY/WX    TMP DP  RH WIND       PRES   REMARKS
ALGONA *       SUNNY     66  63  88 NW6       29.94R
CLARION *      SUNNY     64  63  94 NW7       29.92R
ESTHERVILLE    SUNNY     63  62  97 NW7       29.95R FOG
FORT DODGE *   MOSUNNY   64  61  88 NW6       29.94R
MASON CITY     CLOUDY    66  64  93 NW8       29.92R FOG
FOREST CITY *  PTSUNNY   64  64 100 NW5       29.92R FOG
IOWA FALLS *     N/A     64  63  94 CALM      29.92R FOG
$$

IAZ007>011-017>019-026>030-037>042-050>054-066-301400-
   NORTHEAST IOWA

CITY           SKY/WX    TMP DP  RH WIND       PRES   REMARKS
CEDAR RAPIDS   SUNNY     66  63  90 N3        29.86R HAZE
CHARLES CITY * SUNNY     63  63 100 NW5       29.90S
CLINTON *      SUNNY     64  59  82 NW7       29.89R
DECORAH *        N/A    N/A N/A N/A MISG        N/A
DUBUQUE        SUNNY     64  59  83 N8        29.86S
MONTICELLO *   SUNNY     66  66 100 CALM      29.87R
OELWEIN *      SUNNY     64  61  88 N5        29.89R
WATERLOO       SUNNY     64  61  90 N3        29.88R
$$

IAZ064-065-067-068-078-301400-
   EAST CENTRAL IOWA

CITY           SKY/WX    TMP DP  RH WIND       PRES   REMARKS
DAVENPORT      SUNNY     67  62  84 NW5       29.87R
IOWA CITY      SUNNY     67  62  84 N3        29.87R
MT. PLEASANT * SUNNY     70  64  83 W5        29.86S
MUSCATINE *    SUNNY     68  64  88 NE3       29.86R
QUAD CITIES    PTSUNNY   69  63  81 NW5       29.86R
$$

IAZ062-063-075>077-085>089-095>099-301400-
   SOUTHEAST IOWA

CITY           SKY/WX    TMP DP  RH WIND       PRES   REMARKS
BURLINGTON     SUNNY     68  67  96 W3        29.85S
FAIRFIELD *    SUNNY     66  63  88 MISG      29.87S
FORT MADISON * SUNNY     66  66 100 W5        29.87S
KEOKUK *       SUNNY     68  66  94 W8        29.87S
OSKALOOSA *      N/A     64  63  94 W7        29.89R
CENTERVILLE *  SUNNY     66  63  88 W7        29.92S
OTTUMWA        SUNNY     67  64  90 W8        29.87R
WASHINGTON *   SUNNY     68  66  94 W10       29.88R
$$

ABBREVIATIONS USED IN REMARKS
   TC - TEMPERATURES IN CELSIUS
  WCI - WIND CHILL INDEX
   HX - HEAT INDEX
  VSB - VISIBILITY
$$



USA.gov is the U.S. government's official web portal to all federal, state and local government web resources and services.